GW0518 Weather Reports


Display with metric or nautical units.
time (UTC)temp
F
wind
direction
speed
MPH
gust
MPH
rain 1hr
in
rain 24hr
in
rain mn
in
humidity
%
barometer
mb
20260508222257 55 51 2.0 4.0 0.00 0.12 0.12 50 1010.6
20260508221757 55 51 1.0 4.0 0.00 0.12 0.12 50 1010.7
20260508221257 55 51 2.0 5.0 0.00 0.12 0.12 50 1010.7
20260508220756 55 51 3.0 5.0 0.00 0.12 0.12 49 1010.6
20260508220257 55 79 3.0 7.0 0.00 0.12 0.12 51 1010.7
20260508215758 55 79 4.0 8.0 0.00 0.12 0.12 51 1010.7
20260508215520 55 355 3.0 10.0 0.00 0.12 0.12 51 1010.8
20260508214757 54 0 2.0 10.0 0.00 0.12 0.12 52 1010.9
20260508214257 54 290 2.0 5.0 0.00 0.12 0.12 49 1010.9
20260508213757 55 290 2.0 8.0 0.00 0.12 0.12 50 1010.9
20260508213257 55 300 2.0 8.0 0.00 0.12 0.12 49 1011.0
20260508212757 55 272 2.0 6.0 0.00 0.12 0.12 51 1010.9
20260508212257 54 347 2.0 4.0 0.00 0.12 0.12 52 1011.0
20260508211757 54 264 3.0 9.0 0.00 0.12 0.12 50 1010.9
20260508211257 54 269 4.0 9.0 0.00 0.12 0.12 52 1011.0
20260508210757 54 257 4.0 9.0 0.00 0.12 0.12 50 1011.0
20260508210257 54 222 3.0 9.0 0.00 0.12 0.12 52 1011.0
20260508205757 54 263 2.0 8.0 0.00 0.12 0.12 53 1011.0
20260508205257 54 333 4.0 10.0 0.00 0.12 0.12 53 1011.0
20260508204757 54 204 5.0 10.0 0.00 0.12 0.12 52 1011.1
20260508204257 55 22 5.0 10.0 0.00 0.12 0.12 52 1011.1
20260508203757 55 303 4.0 10.0 0.00 0.12 0.12 54 1011.1
20260508203257 54 44 4.0 9.0 0.00 0.12 0.12 54 1011.2
20260508202756 54 105 4.0 9.0 0.00 0.12 0.12 54 1011.2
20260508202519 54 23 3.0 10.0 0.00 0.12 0.12 57 1011.1
20260508201756 53 34 3.0 10.0 0.00 0.12 0.12 56 1011.2
20260508201257 53 289 4.0 10.0 0.00 0.12 0.12 55 1011.2
20260508200757 53 298 4.0 10.0 0.00 0.12 0.12 55 1011.2
20260508200257 53 244 3.0 8.0 0.00 0.12 0.12 58 1011.3
20260508195756 53 328 4.0 10.0 0.00 0.12 0.12 58 1011.4
20260508195256 53 315 4.0 10.0 0.00 0.12 0.12 57 1011.4
20260508194801 54 262 4.0 9.0 0.00 0.12 0.12 63 1011.4
20260508194523 54 321 4.0 13.0 0.00 0.12 0.12 58 1011.5
20260508193757 54 238 4.0 13.0 0.00 0.12 0.12 57 1011.6
20260508193257 53 355 5.0 12.0 0.00 0.12 0.12 61 1011.6
20260508193023 53 284 5.0 15.0 0.00 0.12 0.12 59 1011.9
20260508192257 53 304 3.0 15.0 0.00 0.12 0.12 61 1011.6
20260508191756 52 221 4.0 10.0 0.00 0.12 0.12 65 1011.6
20260508191257 53 266 4.0 13.0 0.00 0.12 0.12 65 1011.7
20260508190756 53 294 5.0 13.0 0.00 0.12 0.12 66 1011.6
20260508190256 52 250 5.0 13.0 0.00 0.12 0.12 63 1011.7
20260508185757 53 245 4.0 13.0 0.00 0.12 0.12 66 1011.7
20260508185257 52 292 4.0 13.0 0.00 0.12 0.12 66 1011.6
20260508185015 51 300 4.0 9.0 0.00 0.12 0.12 67 1011.7
20260508184256 51 255 5.0 10.0 0.00 0.12 0.12 67 1012.0
20260508183757 51 223 5.0 14.0 0.00 0.12 0.12 65 1012.1
20260508182757 50 254 3.0 8.0 0.00 0.12 0.12 69 1012.1
20260508182256 50 248 3.0 8.0 0.00 0.12 0.12 71 1012.3
20260508181756 49 255 3.0 9.0 0.00 0.12 0.12 69 1012.2
20260508181256 49 276 3.0 9.0 0.00 0.12 0.12 70 1012.4
20260508180756 49 257 4.0 10.0 0.00 0.12 0.12 71 1012.4
20260508180257 49 240 4.0 10.0 0.00 0.12 0.12 70 1012.5
20260508175756 49 273 4.0 12.0 0.00 0.12 0.12 72 1012.3
20260508175256 49 237 4.0 12.0 0.00 0.12 0.12 72 1012.4
20260508174758 49 250 4.0 9.0 0.00 0.12 0.12 73 1012.4
20260508174256 49 266 4.0 11.0 0.00 0.12 0.12 72 1012.4
20260508173757 49 300 4.0 11.0 0.00 0.12 0.12 73 1012.3
20260508173256 49 227 4.0 11.0 0.00 0.12 0.12 72 1012.4
20260508172757 49 301 4.0 13.0 0.00 0.12 0.12 73 1012.4
20260508172256 49 229 4.0 13.0 0.00 0.12 0.12 76 1012.5
20260508171756 49 277 4.0 13.0 0.00 0.12 0.12 74 1012.6
20260508171257 49 288 5.0 15.0 0.00 0.12 0.12 73 1012.6
20260508170756 49 325 6.0 15.0 0.00 0.12 0.12 78 1012.7
20260508170520 48 215 5.0 14.0 0.00 0.12 0.12 78 1012.8
20260508165754 48 252 5.0 16.0 0.00 0.12 0.12 78 1012.9
20260508165253 48 225 6.0 16.0 0.00 0.12 0.12 76 1012.9
20260508164753 49 253 5.0 14.0 0.00 0.12 0.12 79 1013.0
20260508164252 48 223 6.0 13.0 0.00 0.12 0.12 79 1013.0
20260508163752 48 228 6.0 13.0 0.00 0.12 0.12 81 1013.0
20260508163250 48 232 5.0 11.0 0.00 0.12 0.12 83 1012.9
20260508162750 47 217 5.0 10.0 0.00 0.12 0.12 82 1013.0
20260508162250 47 207 4.0 9.0 0.00 0.12 0.12 83 1013.0
20260508161748 47 208 4.0 9.0 0.00 0.12 0.12 85 1013.0
20260508161248 46 193 5.0 11.0 0.00 0.12 0.12 84 1013.1
20260508160748 46 194 6.0 11.0 0.00 0.12 0.12 83 1013.0
20260508160248 45 313 5.0 11.0 0.00 0.12 0.12 83 1013.1
20260508155748 46 238 4.0 9.0 0.00 0.12 0.12 88 1013.0
20260508155249 45 253 4.0 10.0 0.00 0.12 0.12 87 1013.1
20260508154509 45 255 4.0 10.0 0.01 0.12 0.12 89 1013.0
20260508153748 44 245 4.0 10.0 0.01 0.12 0.12 89 1013.0
20260508153248 44 211 4.0 9.0 0.02 0.12 0.12 91 1013.0
20260508152748 43 240 5.0 9.0 0.02 0.12 0.12 91 1012.9
20260508152249 43 229 4.0 9.0 0.02 0.12 0.12 91 1013.1
20260508151748 43 243 3.0 7.0 0.02 0.12 0.12 92 1013.1
20260508151248 42 243 3.0 7.0 0.02 0.12 0.12 92 1013.1
20260508151016 42 196 3.0 7.0 0.02 0.12 0.12 93 1013.1
20260508150508 41 245 3.0 5.0 0.02 0.12 0.12 92 1013.0
20260508145748 40 246 3.0 7.0 0.02 0.12 0.12 92 1013.1
20260508145248 40 253 2.0 7.0 0.02 0.12 0.12 92 1013.2
20260508144748 40 291 1.0 4.0 0.01 0.11 0.11 92 1013.2
20260508144248 40 314 1.0 5.0 0.03 0.11 0.11 92 1013.2
20260508143748 40 315 2.0 9.0 0.05 0.11 0.11 92 1013.3
20260508143249 40 321 2.0 9.0 0.05 0.10 0.10 92 1013.3
20260508142748 40 296 2.0 8.0 0.06 0.10 0.10 92 1013.4
20260508142510 40 307 3.0 10.0 0.06 0.10 0.10 92 1013.4
20260508141748 40 275 3.0 10.0 0.06 0.10 0.10 92 1013.3
20260508141248 40 304 3.0 9.0 0.07 0.10 0.10 92 1013.2
20260508140749 40 259 2.0 8.0 0.07 0.10 0.10 92 1013.0
20260508140248 40 228 2.0 6.0 0.07 0.10 0.10 92 1012.9
20260508135748 40 228 3.0 8.0 0.07 0.10 0.10 92 1012.9
20260508135248 40 224 3.0 8.0 0.07 0.10 0.10 92 1013.0
20260508134749 40 257 4.0 11.0 0.07 0.10 0.09 92 1012.9
20260508134249 41 284 4.0 11.0 0.05 0.08 0.08 92 1013.1
20260508133747 42 307 3.0 10.0 0.03 0.06 0.06 93 1013.2
20260508133249 42 269 4.0 10.0 0.02 0.05 0.04 93 1013.1
20260508132747 42 246 4.0 10.0 0.01 0.04 0.04 93 1013.0
20260508132248 42 252 3.0 10.0 0.01 0.04 0.04 94 1013.0
20260508131748 42 233 2.0 5.0 0.01 0.04 0.04 94 1012.8
20260508131248 43 232 1.0 5.0 0.00 0.03 0.03 95 1012.6
20260508130747 43 232 1.0 5.0 0.00 0.03 0.03 95 1012.6
20260508130248 43 232 2.0 5.0 0.00 0.03 0.03 95 1012.5
20260508130013 43 231 2.0 5.0 0.00 0.03 0.03 95 1012.4
20260508125248 43 230 2.0 6.0 0.00 0.03 0.03 95 1012.4
20260508124748 42 230 2.0 6.0 0.00 0.03 0.03 95 1012.3
20260508124249 43 228 1.0 3.0 0.00 0.03 0.03 95 1012.3
20260508123748 42 228 1.0 3.0 0.00 0.03 0.03 95 1012.3
20260508123248 43 229 2.0 4.0 0.00 0.03 0.03 95 1012.2
20260508123013 42 229 2.0 6.0 0.00 0.03 0.03 95 1012.0
20260508122247 43 228 2.0 6.0 0.00 0.03 0.03 95 1012.1
20260508121248 43 227 2.0 3.0 0.00 0.03 0.03 95 1011.6
20260508120747 42 227 1.0 4.0 0.00 0.03 0.03 95 1011.5
20260508120248 42 227 1.0 4.0 0.00 0.03 0.03 95 1011.5
20260508115748 42 227 2.0 4.0 0.00 0.03 0.03 95 1011.3
20260508115248 42 228 1.0 4.0 0.00 0.03 0.03 95 1011.5
20260508114748 41 228 2.0 4.0 0.00 0.03 0.03 95 1011.7
20260508114510 41 228 1.0 4.0 0.00 0.03 0.03 95 1011.9
20260508113748 41 287 0.0 4.0 0.00 0.03 0.03 95 1011.7
20260508113248 40 292 0.0 3.0 0.00 0.03 0.03 95 1011.7
20260508112747 40 310 0.0 2.0 0.00 0.03 0.03 94 1011.9
20260508112248 39 310 1.0 3.0 0.00 0.03 0.03 94 1011.6
20260508111747 39 310 1.0 3.0 0.00 0.03 0.03 94 1011.4
20260508111248 39 310 0.0 2.0 0.00 0.03 0.03 94 1011.7
20260508110748 38 310 0.0 2.0 0.00 0.03 0.03 94 1011.7
20260508110248 38 310 0.0 0.0 0.00 0.03 0.03 94 1011.9
20260508105747 38 310 0.0 0.0 0.00 0.03 0.03 93 1011.9
20260508105506 37 310 0.0 1.0 0.00 0.03 0.03 93 1012.0
20260508104748 37 310 0.0 1.0 0.00 0.03 0.03 93 1012.0
20260508104248 37 310 0.0 1.0 0.00 0.03 0.03 93 1012.0
20260508104014 37 310 0.0 1.0 0.00 0.03 0.03 93 1012.0
20260508103247 36 310 0.0 0.0 0.00 0.03 0.03 93 1012.2
20260508102748 36 310 0.0 0.0 0.00 0.03 0.03 92 1012.1
20260508101748 35 310 0.0 0.0 0.00 0.03 0.03 92 1012.0
20260508100748 35 310 0.0 0.0 0.00 0.03 0.03 92 1012.1
20260508100250 35 310 0.0 0.0 0.00 0.03 0.03 91 1012.1
20260508095748 35 310 0.0 0.0 0.00 0.03 0.03 91 1012.0
20260508095247 35 310 0.0 0.0 0.00 0.03 0.03 91 1012.0
20260508094748 35 310 0.0 0.0 0.00 0.03 0.03 91 1012.1
20260508094249 35 310 0.0 0.0 0.00 0.03 0.03 91 1012.1
20260508093747 35 310 0.0 0.0 0.00 0.03 0.03 91 1012.2
20260508093248 35 310 0.0 0.0 0.00 0.03 0.03 91 1012.0
20260508093016 36 310 0.0 0.0 0.00 0.03 0.03 91 1011.9
20260508092249 36 310 0.0 0.0 0.00 0.03 0.03 90 1011.9
20260508091748 36 310 0.0 0.0 0.00 0.03 0.03 90 1011.7
20260508091247 36 310 0.0 0.0 0.00 0.03 0.03 90 1011.6
20260508090747 36 310 0.0 0.0 0.00 0.03 0.03 90 1011.6
20260508090248 37 310 0.0 0.0 0.00 0.03 0.03 90 1011.6
20260508085747 37 310 0.0 0.0 0.00 0.03 0.03 90 1011.6
20260508085248 37 310 0.0 0.0 0.00 0.03 0.03 90 1011.6
20260508084748 37 310 0.0 1.0 0.00 0.03 0.03 90 1011.6
20260508084251 38 310 0.0 1.0 0.00 0.03 0.03 90 1011.7
20260508083747 38 310 0.0 0.0 0.00 0.03 0.03 90 1011.7
20260508083247 38 310 0.0 1.0 0.00 0.03 0.03 90 1011.6
20260508082748 38 310 0.0 2.0 0.00 0.03 0.03 90 1011.6
20260508082510 39 310 0.0 2.0 0.01 0.03 0.03 90 1011.6
20260508081747 39 310 0.0 1.0 0.01 0.03 0.03 90 1011.6
20260508081247 39 310 0.0 0.0 0.01 0.03 0.03 90 1011.6
20260508080747 40 310 0.0 0.0 0.01 0.03 0.03 90 1011.6
20260508080247 40 310 0.0 0.0 0.01 0.03 0.03 90 1011.6
20260508075747 40 310 0.0 0.0 0.01 0.03 0.03 91 1011.7
20260508075248 40 310 0.0 0.0 0.01 0.03 0.03 91 1011.6
20260508074747 40 310 0.0 0.0 0.01 0.03 0.03 90 1011.5
20260508074507 41 310 0.0 0.0 0.01 0.03 0.03 90 1011.4
20260508073747 41 310 0.0 0.0 0.01 0.03 0.03 91 1011.3
20260508073510 41 310 0.0 2.0 0.01 0.03 0.03 91 1011.6
20260508072747 41 310 0.0 2.0 0.01 0.03 0.03 90 1011.7
20260508072247 41 310 0.0 2.0 0.00 0.02 0.02 90 1011.9
20260508072007 41 310 1.0 3.0 0.00 0.02 0.02 90 1011.9
20260508070747 41 310 1.0 3.0 0.00 0.02 0.02 90 1011.9
20260508070248 41 310 1.0 5.0 0.00 0.02 0.02 90 1011.9
20260508065747 41 310 1.0 5.0 0.02 0.02 0.02 89 1011.9
20260508065506 41 311 1.0 4.0 0.02 0.02 0.02 89 1011.9
20260508064743 41 311 1.0 4.0 0.02 0.02 0.02 89 1012.0
20260508064243 41 311 1.0 3.0 0.02 0.02 0.02 89 1011.9
20260508063744 41 311 1.0 4.0 0.02 0.02 0.02 88 1011.7
20260508063243 41 311 2.0 5.0 0.02 0.02 0.02 88 1011.7
20260508062744 41 311 2.0 6.0 0.02 0.02 0.02 87 1011.7
20260508062239 41 325 2.0 6.0 0.02 0.02 0.02 87 1011.7
20260508061739 42 285 3.0 9.0 0.02 0.02 0.02 86 1011.6
20260508061502 42 284 4.0 10.0 0.02 0.02 0.02 85 1011.7
20260508060739 42 319 6.0 16.0 0.02 0.02 0.02 85 1011.6
20260508060240 42 285 6.0 16.0 0.01 0.01 0.01 84 1011.9
20260508055739 43 286 5.0 14.0 0.00 0.00 0.00 83 1011.7
20260508055240 43 306 4.0 12.0 0.00 0.00 0.00 83 1011.6
20260508055004 42 304 3.0 9.0 0.00 0.00 0.00 82 1011.6
20260508054239 42 302 3.0 9.0 0.00 0.00 0.00 82 1011.5
20260508054004 42 298 3.0 9.0 0.00 0.00 0.00 82 1011.5
20260508053239 42 290 3.0 7.0 0.00 0.00 0.00 82 1011.5
20260508052740 42 308 3.0 7.0 0.00 0.00 0.00 82 1011.6
20260508052239 42 304 2.0 6.0 0.00 0.00 0.00 82 1011.4
20260508051739 42 280 3.0 9.0 0.00 0.00 0.00 83 1011.5
20260508051503 41 266 4.0 12.0 0.00 0.00 0.00 84 1011.5
20260508050739 41 355 3.0 12.0 0.00 0.00 0.00 84 1011.4
20260508050239 40 285 1.0 9.0 0.00 0.00 0.00 85 1011.4
20260508045739 40 234 2.0 8.0 0.00 0.00 0.00 86 1011.4
20260508045239 40 303 2.0 8.0 0.00 0.00 0.00 86 1011.4
20260508044739 40 306 1.0 5.0 0.00 0.00 0.00 87 1011.3
20260508044239 40 355 0.0 3.0 0.00 0.00 0.00 88 1011.3
20260508043739 40 5 0.0 0.0 0.00 0.00 0.00 88 1011.4
20260508043239 40 5 0.0 0.0 0.00 0.00 0.00 88 1011.3
20260508042740 40 5 0.0 0.0 0.00 0.00 0.00 88 1011.3
20260508042459 40 5 0.0 0.0 0.00 0.00 0.00 88 1011.3
20260508041739 39 5 0.0 0.0 0.00 0.00 0.00 88 1011.3
20260508041239 39 5 0.0 0.0 0.00 0.00 0.00 88 1011.3
20260508040740 39 5 0.0 0.0 0.00 0.00 0.00 87 1011.4
20260508040536 39 5 0.0 0.0 0.00 0.00 0.00 87 1011.4
20260508035739 39 5 0.0 0.0 0.00 0.00 0.00 87 1011.4
20260508035239 39 5 0.0 0.0 0.00 0.00 0.00 87 1011.5
20260508034739 39 5 0.0 0.0 0.00 0.00 0.00 87 1011.4
20260508034238 38 5 0.0 0.0 0.00 0.00 0.00 86 1011.5
20260508034003 38 5 0.0 0.0 0.00 0.00 0.00 86 1011.5
20260508033238 38 5 0.0 0.0 0.00 0.00 0.00 86 1011.4
20260508032739 38 5 0.0 1.0 0.00 0.00 0.00 85 1011.3
20260508032509 38 5 0.0 2.0 0.00 0.00 0.00 84 1011.2
20260508031740 38 5 0.0 2.0 0.00 0.00 0.00 84 1011.2
20260508031239 38 5 0.0 2.0 0.00 0.00 0.00 83 1011.3
20260508030739 38 5 0.0 2.0 0.00 0.00 0.00 82 1011.3
20260508030239 38 5 0.0 0.0 0.00 0.01 0.00 81 1011.2
20260508025739 38 5 0.0 0.0 0.00 0.01 0.00 80 1011.1
20260508025239 38 5 0.0 0.0 0.00 0.01 0.00 80 1011.0
20260508024736 38 5 0.0 0.0 0.00 0.01 0.00 80 1011.0
20260508024237 39 5 0.0 0.0 0.00 0.01 0.00 80 1011.0
20260508023737 39 5 0.0 0.0 0.00 0.01 0.00 79 1011.0
20260508023237 39 5 0.0 0.0 0.00 0.01 0.00 78 1010.9
20260508022736 39 5 0.0 1.0 0.00 0.01 0.00 78 1010.9
20260508022237 40 5 0.0 4.0 0.00 0.01 0.00 78 1010.7
20260508021737 40 5 0.0 4.0 0.00 0.01 0.00 77 1010.7
20260508021237 40 11 0.0 2.0 0.00 0.01 0.00 76 1010.6
20260508020959 40 11 0.0 2.0 0.00 0.01 0.00 74 1010.6
20260508015957 41 11 0.0 0.0 0.00 0.01 0.00 73 1010.6
20260508015237 41 11 0.0 0.0 0.00 0.01 0.00 71 1010.7
20260508014738 42 11 0.0 0.0 0.00 0.01 0.00 71 1010.8
20260508014455 42 11 0.0 0.0 0.00 0.01 0.00 71 1010.8
20260508013737 42 11 0.0 0.0 0.00 0.01 0.00 70 1010.8
20260508013237 43 11 0.0 0.0 0.00 0.01 0.00 70 1010.7
20260508012736 43 11 0.0 0.0 0.00 0.01 0.00 69 1010.8
20260508012237 43 11 0.0 0.0 0.00 0.01 0.00 68 1010.8
20260508011736 43 11 0.0 0.0 0.00 0.01 0.00 67 1010.8
20260508011237 44 11 0.0 0.0 0.00 0.01 0.00 65 1010.7
20260508010737 44 11 0.0 0.0 0.00 0.01 0.00 63 1010.7
20260508010237 45 11 0.0 0.0 0.00 0.01 0.00 62 1010.6
20260508005738 45 11 0.0 0.0 0.00 0.01 0.00 61 1010.5
20260508005236 46 11 0.0 2.0 0.00 0.01 0.00 61 1010.4
20260508004737 46 11 0.0 3.0 0.00 0.01 0.00 60 1010.5
20260508004237 46 11 0.0 3.0 0.00 0.01 0.00 59 1010.5
20260508003736 47 11 0.0 0.0 0.00 0.01 0.00 58 1010.4
20260508003237 47 11 0.0 5.0 0.00 0.01 0.00 58 1010.4
20260508002737 47 11 0.0 5.0 0.00 0.01 0.00 58 1010.4
20260508002236 47 11 1.0 5.0 0.00 0.01 0.00 57 1010.4
20260508001737 47 11 2.0 5.0 0.00 0.01 0.00 56 1010.4
20260508001237 48 9 1.0 3.0 0.00 0.01 0.00 57 1010.3
20260508000737 48 9 2.0 5.0 0.00 0.01 0.00 56 1010.4
20260508000237 48 9 3.0 5.0 0.00 0.01 0.00 55 1010.3
20260507235736 48 26 2.0 5.0 0.00 0.01 0.00 57 1010.3
20260507235237 48 12 2.0 4.0 0.00 0.01 0.00 57 1010.3
20260507235001 48 13 3.0 5.0 0.00 0.01 0.00 56 1010.3
20260507234237 48 17 3.0 9.0 0.00 0.01 0.00 56 1010.3
20260507234003 49 34 3.0 9.0 0.00 0.01 0.00 57 1010.3
20260507233236 49 15 3.0 7.0 0.00 0.01 0.00 57 1010.3
20260507232737 49 18 3.0 7.0 0.00 0.01 0.00 58 1010.3
20260507232456 49 18 3.0 7.0 0.00 0.01 0.00 58 1010.3
20260507231736 49 20 3.0 6.0 0.00 0.01 0.00 58 1010.3
20260507231237 49 53 3.0 6.0 0.00 0.01 0.00 57 1010.2
20260507230736 50 57 2.0 5.0 0.00 0.01 0.00 57 1010.1
20260507230236 50 345 3.0 4.0 0.00 0.01 0.00 57 1010.2
20260507225737 50 350 3.0 7.0 0.00 0.01 0.00 55 1010.3
20260507225237 50 350 3.0 9.0 0.00 0.01 0.00 55 1010.2
20260507224737 51 28 3.0 9.0 0.00 0.01 0.00 54 1010.1
20260507224237 51 350 4.0 10.0 0.00 0.01 0.00 53 1010.1
20260507223736 51 338 4.0 10.0 0.00 0.01 0.00 52 1010.0
20260507223236 52 355 4.0 12.0 0.00 0.01 0.00 53 1010.0
20260507222738 52 5 5.0 12.0 0.00 0.01 0.00 51 1010.0